Location: Góry Miechowskie
(50.3599°N, 20.1803°E)
Time: 16:55:21
(UTC+00:00)

Cosmos 2228 - Pass Details

Date: 25 September 2024
Orbit: 574 x 600 km, 82.5° (Epoch: 12 October)

Event Time Altitude Azimuth Distance (km) Brightness Sun altitude
Exits shadow 00:38:42 19° 9° (N) 1,459 5.5 -33.7°
Drops below altitude 10° 00:39:57 10° 10° (N) 1,952 6.2 -33.5°
Sets 00:42:11 0° 11° (N) 2,862 7.3 -33.3°
